Weather History for Springfield, VT

Change the Weather History Date:

Sunday, February 17, 2013

  Actual Average Record
Temperature  
Mean Temperature 16 °F 24 °F  
Max Temperature 21 °F 34 °F 52 °F (2011)
Min Temperature 10 °F 14 °F -7 °F (2004)
Degree Days  
Heating Degree Days 49 41  
Month to date heating degree days 731 736  
Since 1 July heating degree days 4455 5008  
Moisture  
Dew Point -2 °F    
Average Humidity 45    
Maximum Humidity 51    
Minimum Humidity 39    
Precipitation  
Precipitation 0.00 in 0.11 in 0.69 in (2002)
Month to date precipitation 0.81 1.68  
Year to date precipitation 2.14 4.60  
Sea Level Pressure  
Sea Level Pressure 29.68 in    
Wind  
Wind Speed 11 mph (NW)    
Max Wind Speed 23 mph    
Max Gust Speed 36 mph    
Visibility 10 miles    
Events      
T = Trace of Precipitation, MM = Missing Value Source: NWS Daily Summary

Daily Weather History Graph

Daily Weather History Graph

Search for Another Location

Airport:

Trip Planner

Search our weather history database for the weather conditions in past years. The results will help you decide how hot, cold, wet, or windy it might be!

Date:

Astronomy

Feb. 17, 2013 Rise Set
Actual Time 6:44 AM EST 5:23 PM EST
Civil Twilight 6:15 AM EST 5:53 PM EST
Nautical Twilight 5:42 AM EST 6:26 PM EST
Astronomical Twilight 5:09 AM EST 6:59 PM EST
Moon 10:22 AM EST (2/17) 12:30 AM EST (2/17)
Length of Visible Light 11h 37m
Length of Day
10h 38m
Waxing Crescent, 49% of the Moon is Illuminated
Feb 17
Waxing Crescent
Feb 17
First Quarter
Feb 25
Full
Mar 4
Last Quarter
Mar 11
New

Hourly Weather History & Observations

Time (EST) Temp. Windchill Dew Point Humidity Pressure Visibility Wind Dir Wind Speed Gust Speed Precip Events Conditions
12:54 AM 21.0 °F 11.4 °F -0.9 °F 38% 29.80 in 10.0 mi North 8.1 mph - N/A   Overcast
1:54 AM 19.9 °F 8.6 °F -0.9 °F 40% 29.79 in 10.0 mi North 10.4 mph 18.4 mph N/A   Mostly Cloudy
2:54 AM 19.9 °F - -0.9 °F 40% 29.77 in 10.0 mi Calm Calm - N/A   Overcast
3:54 AM 19.0 °F 9.0 °F -0.9 °F 42% 29.75 in 10.0 mi North 8.1 mph 16.1 mph N/A   Overcast
4:54 AM 18.0 °F 11.1 °F -0.9 °F 44% 29.73 in 10.0 mi North 4.6 mph - N/A   Overcast
5:54 AM 17.1 °F 7.6 °F -2.0 °F 43% 29.72 in 10.0 mi Variable 6.9 mph - N/A   Overcast
6:54 AM 17.1 °F 3.0 °F -2.0 °F 43% 29.68 in 10.0 mi North 13.8 mph 23.0 mph N/A   Overcast
7:54 AM 16.0 °F 3.6 °F -0.9 °F 47% 29.66 in 10.0 mi NNW 10.4 mph 17.3 mph N/A   Overcast
8:54 AM 17.1 °F 8.7 °F -0.0 °F 47% 29.62 in 10.0 mi Variable 5.8 mph 20.7 mph N/A   Overcast
9:54 AM 17.1 °F 3.6 °F -0.0 °F 47% 29.61 in 10.0 mi NNW 12.7 mph 21.9 mph N/A   Overcast
10:54 AM 18.0 °F 4.2 °F 1.0 °F 48% 29.58 in 10.0 mi WNW 13.8 mph 20.7 mph N/A   Overcast
11:54 AM 17.1 °F 3.6 °F -0.0 °F 47% 29.57 in 10.0 mi WNW 12.7 mph 25.3 mph N/A   Unknown
12:54 PM 16.0 °F 1.1 °F -0.0 °F 49% 29.58 in 10.0 mi West 15.0 mph 28.8 mph N/A   Mostly Cloudy
1:54 PM 17.1 °F 2.5 °F -2.0 °F 43% 29.58 in 10.0 mi NW 15.0 mph 32.2 mph N/A   Overcast
2:54 PM 17.1 °F 0.6 °F -2.9 °F 41% 29.58 in 10.0 mi NW 19.6 mph 32.2 mph N/A   Overcast
3:54 PM 18.0 °F 5.4 °F -2.0 °F 41% 29.60 in 10.0 mi NW 11.5 mph 32.2 mph N/A   Mostly Cloudy
4:54 PM 18.0 °F 4.8 °F -2.9 °F 40% 29.61 in 10.0 mi NW 12.7 mph 31.1 mph N/A   Scattered Clouds
5:54 PM 17.1 °F 4.3 °F -2.9 °F 41% 29.65 in 10.0 mi NW 11.5 mph 20.7 mph N/A   Overcast
6:54 PM 16.0 °F 3.6 °F -4.0 °F 41% 29.67 in 10.0 mi NNW 10.4 mph 24.2 mph N/A   Overcast
7:54 PM 15.1 °F 1.1 °F -4.0 °F 43% 29.68 in 10.0 mi West 12.7 mph 25.3 mph N/A   Scattered Clouds
8:54 PM 12.9 °F -0.2 °F -4.0 °F 47% 29.72 in 10.0 mi WNW 10.4 mph 33.4 mph N/A   Clear
9:54 PM 10.9 °F -0.8 °F -5.1 °F 49% 29.74 in 10.0 mi NW 8.1 mph 21.9 mph N/A   Scattered Clouds
10:54 PM 10.9 °F -4.1 °F -5.1 °F 49% 29.78 in 10.0 mi NW 12.7 mph 19.6 mph N/A   Mostly Cloudy
11:54 PM 10.9 °F -7.5 °F -4.0 °F 51% 29.80 in 10.0 mi WNW 19.6 mph 32.2 mph N/A   Overcast